Regional Weather Roundup
Issued by NWS

Home | Current Version | Previous Version | Text Only | Print | Product List | Glossary On
Versions: 1 2 3 4 5 6 7 8 9 10 11 12 13 14 15 16 17 18 19 20 21 22 23 24 25 26 27 28 29 30 31 32 33 34 35 36 37 38 39 40 41 42 43 44 45 46 47 48 49 50
000
ASUS43 KTOP 221759
RWRKS

WEATHER ROUNDUP FOR KANSAS
NATIONAL WEATHER SERVICE GOODLAND KS
1200 PM CST MON JAN 22 2018

NOTE:  "FAIR" INDICATES FEW OR NO CLOUDS BELOW 12,000 FEET WITH NO
SIGNIFICANT WEATHER AND/OR OBSTRUCTIONS TO VISIBILITY.

KSZ001>006-013>018-027>032-041>047-221900-
NORTHWEST KANSAS

CITY           SKY/WX    TMP DP  RH WIND       PRES   REMARKS
GOODLAND       FLURRIES  27  19  72 NW28G36   29.94R WCI  11
6HR MIN TEMP:  24; 6HR MAX TEMP:  27; 6HR PCP: TRACE;

HAYS           MIX PCPN  33  28  81 NW29G39   29.81R WCI  19
HILL CITY      FLURRIES  33  26  75 NW24G37   29.85S WCI  20
6HR MIN TEMP:  31; 6HR MAX TEMP:  33;

RUSSELL        LGT SNOW  34  32  92 NW35G46   29.75R VSB 3/4 WCI  19
6HR MIN TEMP:  33; 6HR MAX TEMP:  34; 6HR PCP:  0.04;

$$

KSZ061>065-074>080-084>089-221900-
SOUTHWEST KANSAS

CITY           SKY/WX    TMP DP  RH WIND       PRES   REMARKS
DODGE CITY     CLOUDY    39  23  52 NW30G52   29.89R WCI  27
6HR MIN TEMP:  31; 6HR MAX TEMP:  40; 6HR PCP: TRACE;

GARDEN CITY    SUNNY     38  21  50 NW30G44   29.94R WCI  26
6HR MIN TEMP:  30; 6HR MAX TEMP:  38; 6HR PCP: TRACE;

GREAT BEND     LGT RAIN  34  30  86 NW35G46   29.76R WCI  19
LIBERAL        SUNNY     41  18  39 N30G38    29.98S
$$

KSZ066>073-081>083-090>101-221900-
SOUTHEAST KANSAS

CITY           SKY/WX    TMP DP  RH WIND       PRES   REMARKS
COFFEYVILLE    CLOUDY    43  31  62 W22G33    29.65R
6HR MIN TEMP:  39; 6HR MAX TEMP:  43;

HUTCHINSON     FLURRIES  34  31  88 NW28G39   29.69R WCI  21
6HR MIN TEMP:  33; 6HR MAX TEMP:  36; 6HR PCP:  0.04;

MEDICINE LODGE   N/A     44  29  55 NW24G41   29.83R
NEWTON         CLOUDY    33  31  92 NW28G36   29.64R WCI  20
PARSONS        LGT RAIN  40  33  76 W16G30    29.63R WCI  31
6HR MIN TEMP:  38; 6HR MAX TEMP:  42; 6HR PCP: TRACE;

WICHITA INTL   CLOUDY    37  31  78 NW32G44   29.69R WCI  24
6HR MIN TEMP:  36; 6HR MAX TEMP:  38; 6HR PCP: TRACE;

WICHITA JABRA  MIX PCPN  34  33  96 NW24G33   29.66R FOG     WCI  21
6HR MIN TEMP:  33; 6HR MAX TEMP:  37; 6HR PCP: TRACE;

WICHITA MCCONL CLOUDY    35  31  86 NW20G28   29.67R WCI  24
WINFIELD       CLOUDY    38  30  73 NW28G44   29.74R WCI  26
6HR MIN TEMP:  38; 6HR MAX TEMP:  40;

$$

KSZ007>012-019>026-033>040-048>060-102>105-221900-
NORTHEAST KANSAS

CITY           SKY/WX    TMP DP  RH WIND       PRES   REMARKS
CONCORDIA      LGT SNOW  32  29  88 NW30G39   29.61R FOG     WCI  18
6HR MIN TEMP:  31; 6HR MAX TEMP:  33; 6HR PCP:  0.01;

EMPORIA        CLOUDY    34  32  92 W20G29    29.54S WCI  23
6HR MIN TEMP:  32; 6HR MAX TEMP:  36; 6HR PCP:  0.03;

LAWRENCE       LGT RAIN  38  35  89 SW13      29.46R WCI  30
6HR MIN TEMP:  36; 6HR MAX TEMP:  39; 6HR PCP:  0.01;

MANHATTAN      CLOUDY    34  29  82 NW9G18    29.56R
6HR MIN TEMP:  34; 6HR MAX TEMP:  37; 6HR PCP:  0.13;

OLATHE IND     CLOUDY    37  36  96 SW17      29.46F WCI  27
6HR MIN TEMP:  35; 6HR MAX TEMP:  38; 6HR PCP: TRACE;

OLATHE EXE     CLOUDY    36  35  96 SW10G21   29.46S WCI  28
6HR MIN TEMP:  34; 6HR MAX TEMP:  36;

SALINA         LGT SNOW  35  31  85 NW30G39   29.65R FOG     WCI  22
6HR MIN TEMP:  34; 6HR MAX TEMP:  38; 6HR PCP:  0.02;

TOPEKA BILLARD LGT SNOW  35  34  96 W13       29.47S FOG     WCI  26
6HR MIN TEMP:  35; 6HR MAX TEMP:  38; 6HR PCP:  0.04;

TOPEKA FORBES  LGT SNOW  36  34  92 W18       29.47R FOG     WCI  26
6HR MIN TEMP:  35; 6HR MAX TEMP:  38; 6HR PCP:  0.03;

$$




USA.gov is the U.S. government's official web portal to all federal, state and local government web resources and services.